Find Starlink 37028

NORAD ID: 68270 Int'l Des: 2026-055 Owner: SPXS Country: US Constellation: starlink operational
LEOCIRCULAR

Current View

Loading 3D Globe...

About Starlink 37028

Starlink 37028 (NORAD 68270) is a starlink constellation satellite (v2 mini) launched Mar 19, 2026 by SPXS of US. It operates in LEO, CIRCULAR orbit with a mass of 575.00 kg.

About Starlink 37028

Description loading...

Upcoming Passes

Passes for default location (London). Set your location on the main map for personalized predictions.

Altitude History

Loading altitude history...

Two-Line Element Set

1 68270U 26055J 26169.40495659 .00013131 00000-0 39892-3 0 9990
2 68270 53.1568 211.2656 0001516 85.1689 274.9487 15.34412337 15354
Epoch: Jun 18, 2026 • Age: 18 hours

Current Status

Altitude 465.4 km
Velocity 7.64 km/s
Sub-Earth Point 39.97°N, 29.81°E
Launch Date Mar 19, 2026
Age 0.2 years
Type internet

Technical Details

Classification Payload
Mass 575.00 kg
Dry Mass 530.00 kg
Total Mass 575.00 kg
Length 0.30 m
Diameter 4.10 m
Span 29.00 m
Shape Box + pan
Manufacturer SPXS
Bus Type Starlink V2MO
Phase Status In Orbit
Owner/State SPXS/US

Most Searched